Tracking 18984 objects as of 24-Feb-2018
HD Live streaming from Space Station
objects crossing your sky now

FENGYUN 1C DEB

Track FENGYUN 1C DEB now!
10-day predictions


NORAD ID: 41007
Int'l Code: 1999-025EXM
Perigee: 845.6 km
Apogee: 1,123.1 km
Inclination: 100.0 °
Period: 104.6 minutes
Semi major axis: 7355 km
RCS: Unknown
Launch date: May 10, 1999
Source: People's Republic of China (PRC)
Launch site: Taiyaun Space Center, China (TSC)

Note: This is SATELLITE DEBRIS
aabbcc
Your satellite tracking list
Your tracking list is empty




NASA's NSSDC Master Catalog

Two Line Element Set (TLE):
1 41007U 99025EXM 18043.35468522 +.00000674 +00000-0 +65205-3 0  9996
2 41007 099.9937 249.8005 0188633 244.1057 112.5266 13.76248605179732
Source of the keplerian elements: AFSPC